DECAYED

STARLINK-3084, 49136 (Decayed)

Orbit data source: Space-Track

STARLINK-3084, 49136 was a payload satellite owned by SpaceX/Seattle (US) in LEO that was launched on Tue, 14 Sep 2021 UTC via an FALCON 9 launch vehicle from the Air Force Western Test Range (AFWTR). Payload-class satellites include a variety of spacecraft equipped with specific instruments for various scientific and technological missions. These include communications satellites like Starlink; space stations such as the ISS; scientific satellites like the Hubble; Earth observation satellites from companies like Planet Labs, Umbra, and HawkEye 360; GPS; miniature CubeSats for education and research; and military/defense satellites.

Not visible in the next 10 days
Identifier
49136, 2021-082G
Orbit
Decayed
Country
Flag of USUS
Related business
Manufacturer
SpaceX/Seattle
Mission
Decayed Commercial Communications
Bus & Motor
STARLINK, Unknown motor
Mass
297 kg wet, ~275 kg dry
Launch date (UTC)
2021-09-14 (5 years ago)
Launch vehicle
FALCON 9
Launch site
Air Force Western Test Range (AFWTR)
Object type
Payload
Rocket body
Debris
Shape & HBR
Box + 1 Pan, 10.1 m
Radar Cross Section
13.562 m², Large (>1 m²)

Expand to show TLE details & history
Last TLE update: 8 months ago

TLE from 8 months ago
0 STARLINK-3084
1 49136U 21082G   25280.37304928  .07411142  43943-5  44626-3 0  9992
2 49136  69.9775 285.2950 0011049 225.3835 134.6496 16.41014459223906
Epoch: 2025-10-07T08:57Z
TLE epoch observation values (Epoch: 2025-10-07T08:57:11.457Z)
Latitude
-0.00006°
Longitude
134.73436°
Altitude
170.763 km
Speed
7.801 km/s
True Right ascension
19h 01m 10s
True Declination
0° 00' 00"
Sunlit
Object was in daylight at epoch
Visualization orbit readout
Latitude
Unknown
Longitude
Unknown
Altitude
Unknown
Speed
Unknown
Apparent Right ascension
Unknown
Apparent Declination
Unknown
Sunlit
N/A
Visualization observer readout
Local Sidereal Time
23:18:53
Azimuth
Unknown
Elevation
Unknown
Doppler factor
Unknown
Orbital elements
Apogee altitude
168.152 km
Perigee altitude
153.702 km
Semi-major axis
6,539.064 km
Eccentricity
0.0011
Inclination
69.9775°
RAAN
285.295°
Arg. of periapsis
225.3835°
True anomaly
134.73959°
Mean anomaly
134.6496°
Eccentric anomaly
134.6946°
Mean motion
4.10459 °/min
Orbital period
87.71 mins
BSTAR
0.00044626
Loading maneuver chart data...
Computing Atmospheric mass density...
Loading historical data...
Loading historical data...
Loading historical data...
Loading historical data...
Loading historical data...
Loading historical data...
Loading historical data...

Documentation

Showing up to 5 results
|